Hourly Data Report for July 03, 2021

DRYDEN REGIONAL
ONTARIO
Current Station Operator: NAVCAN

49°49'39.000" N
92°44'39.000" W
412.70 m
6032125
71527
YHD

Download Data

Hourly Data (July 2021)
Hourly Data Report for July 3, 2021
TIME
LST
Temp Definition
°C
Dew Point Definition
°C
Rel Hum Definition
%
Precip. Amount Definition
mm

Wind Dir Definition
10's deg

Wind Spd Definition
km/h
Visibility Definition
km
Stn Press Definition
kPa
Hmdx Definition


Wind Chill Definition


Weather Definition


00:00 21.8 14.8 64 0.0 23 11 16.1 96.67 26   LegendNANA
01:00 21.4 14.9 66 0.0 25 9 16.1 96.66 25   LegendNANA
02:00 20.9 15.3 70 0.0 26 8 16.1 96.66 25   LegendNANA
03:00 20.3 15.7 75 0.0 25 11 16.1 96.63 25   LegendNANA
04:00 18.9 15.6 81 0.0 22 9 16.1 96.63     LegendNANA
05:00 19.4 15.9 80 0.0 21 9 14.5 96.63     LegendNANA
06:00 21.1 16.6 75 0.0 21 9 16.1 96.61 26   LegendNANA
07:00 23.5 17.7 70 0.0 25 15 16.1 96.62 29   LegendNANA
08:00 26.1 18.1 61 0.0 27 17 16.1 96.60 32   LegendNANA
09:00 27.7 18.5 57 0.0 22 13 16.1 96.55 34   LegendNANA
10:00 28.8 17.9 51 0.0 26 18 16.1 96.52 35   LegendNANA
11:00 29.7 17.7 48 0.0 25 21 16.1 96.49 35   LegendNANA
12:00 31.1 17.6 44 0.0 23 15 16.1 96.41 37   LegendNANA
13:00 31.6 16.8 41 0.0 24 18 16.1 96.35 37   LegendNANA
14:00 31.7 15.7 37 0.0 25 21 16.1 96.29 36   LegendNANA
15:00 31.8 15.1 36 0.0 27 15 16.1 96.24 36   LegendNANA
16:00 32.2 15.5 36 0.0 25 21 16.1 96.18 36   LegendNANA
17:00 32.4 15.6 36 0.0 26 24 16.1 96.11 37   LegendNANA
18:00 31.6 16.3 39 0.0 26 15 16.1 96.06 36   LegendNANA
19:00 30.4 16.1 41 0.0 23 9 16.1 96.01 35   LegendNANA
20:00 28.4 16.9 49 0.0 23 9 16.1 96.04 34   LegendNANA
21:00 26.7 16.5 53 0.0 23 8 16.1 96.05 32   LegendNANA
22:00 25.7 16.7 57 0.0 23 9 16.1 96.04 31   LegendNANA
23:00 24.2 15.8 59 0.0 19 15 16.1 96.03 29   LegendNANA

Notes on Data Quality.

Legend

  • E = Estimated
  • M = Missing
  • NA = Not Available*
  • [empty] = Indicates an unobserved value
Date modified: